Regional Weather Roundup
Issued by NWS Newport/Morehead, NC

Home | Current Version | Previous Version | Text Only | Print | Product List | Glossary On
Versions: 1 2 3 4 5 6 7 8 9 10 11 12 13 14 15 16 17 18 19 20 21 22 23 24 25 26 27 28 29 30 31 32 33 34 35 36 37 38 39 40 41 42 43 44 45 46 47 48 49 50
000
ASUS42 KMHX 310622
RWRMHX
WEATHER ROUNDUP FOR EASTERN NORTH CAROLINA
NATIONAL WEATHER SERVICE NEWPORT/MOREHEAD CITY NC
200 AM EDT FRI OCT 31 2014

NOTE: "FAIR" INDICATES FEW OR NO CLOUDS BELOW 12,000 FEET
WITH NO SIGNIFICANT WEATHER AND/OR OBSTRUCTIONS TO VISIBILITY

NCZ015>017-031-032-045>047-102-103-310700-
NORTH COAST

CITY           SKY/WX    TMP DP  RH WIND       PRES   REMARKS
EDENTON        CLEAR     47  43  86 N3        29.97F
ELIZABETH CITY CLEAR     54  45  71 N8        29.97F
KITTY HAWK     CLEAR     59  47  64 NE9       29.94F
MANTEO         MOCLDY    59  48  67 N10       29.95F

$$

NCZ045>047-081-094-103-104-310700-
CENTRAL COAST

CITY           SKY/WX    TMP DP  RH WIND       PRES   REMARKS
FRISCO         CLOUDY    60  50  69 NE9G20    29.91F
SWANQUARTER      N/A     48 N/A N/A N1        29.91S

$$

NCZ095-097-098-100-101-310700-
SOUTHERN COAST

CITY           SKY/WX    TMP DP  RH WIND       PRES   REMARKS
BEAUFORT       CLOUDY    56  51  84 N12       29.92F
CEDAR ISLAND     N/A     61 N/A N/A N20G26    29.97S
JACKSONVILLE   PTCLDY    53  49  86 N6        29.94S
PINEY ISLAND   MOCLDY    63  49  60 NE15G23   29.93F
WILMINGTON     CLEAR     53  51  93 NE10      29.92F


$$

NCZ011>013-027>030-043-044-078>080-089-090>093-098-310700-
COASTAL PLAIN

CITY           SKY/WX    TMP DP  RH WIND       PRES   REMARKS
AHOSKIE        NOT AVBL
CLINTON        CLEAR     52  49  89 NE3       29.96S
ELIZABETHTOWN  PTCLDY    50  48  92 CALM      29.94F
GOLDSBORO      CLEAR     49  48  98 NE2       29.95F
GREENVILLE     CLEAR     46  45  93 NE3       29.99F
HAVELOCK       PTCLDY    56  49  77 NE10      29.95S
KENANSVILLE    CLEAR     46  45  98 CALM      29.97S
KINSTON        CLEAR     48  46  93 CALM      29.97S
NEW BERN       CLEAR     54  49  83 NE7       29.96F
RICHLANDS      FAIR      48  45  87 N6        29.95F
ROCKY MOUNT    CLEAR     44  43  96 NE6       29.98F
WASHINGTON     CLEAR     47  44  88 N5        29.97S
WHITEVILLE     PTCLDY    52  49  87 CALM      29.93F

$$

AMZ130-135-150-152-154-156-158-170-250-252-270-ANZ085-086-088-633-658-670-310700-
MARINE OBSERVATIONS

STATION/POSITION TIME  TEMP    WIND        PRES    WAVE   SWELL
                       AIR SEA DIR/SP/G            HT/PER HT/PER
                 (UTC) (F)     (DEG/KT/KT) (MB)    (FT/S) (FT/S)
CHESAPEAKE LIGHT 0600   59      40/ 14/ 16 1015.5
64 E VA BEACH    0600   60 66   40/ 12/ 14 1014.1    2/ 6   2/ 6
DUCK             0600   61 66   30/ 15/ 19 1013.6
2 E DUCK         NOT AVBL
10 NE DUCK       0600      67                N/A     3/ 5
OREGON INLET     0600   61 67   30/ 13/ 16 1013.8
13E OREGON INLT  0600      69                N/A     4/ 7
HATTERAS CG      0600   62 67   30/ 13/ 23 1013.3
DIAMOND BUOY     0600   65      10/ 19/ 25 1011.9    5/ 6
17 S OCRACOKE    NOT AVBL
CAPE LOOKOUT     0600   62      20/ 16/ 19 1012.6
BEAUFORT LAB     0600   58 69   10/ 10/ 14 1012.6
30 SE NEW RIVER  0600   65 74   30/ 19/ 25 1011.4    4/ 5   2/ 9
5 SE WRIGHTSVLE  0600   61 71   40/ 19/ 21   N/A
225 S CAPE HAT   0549   75 78  150/  2/  4 1010.7    3/ 6   3/ 6
41 SE CHARLESTON 0600   70 77   30/ 14/ 17 1010.8    4/ 6   2/12

$$



USA.gov is the U.S. government's official web portal to all federal, state and local government web resources and services.